Regional Weather Roundup
Issued by NWS Columbia, SC

Home | Current Version | Previous Version | Text Only | Print | Product List | Glossary On
Versions: 1 2 3 4 5 6 7 8 9 10 11 12 13 14 15 16 17 18 19 20 21 22 23 24 25 26 27
000
ASUS42 KCAE 202310
RWRCAE
REGIONAL WEATHER ROUNDUP
NATIONAL WEATHER SERVICE COLUMBIA SC
700 PM EDT SUN AUG 20 2017

NOTE: "FAIR" INDICATES FEW OR NO CLOUDS BELOW 12,000 FEET WITH NO
SIGNIFICANT WEATHER AND/OR OBSTRUCTIONS TO VISIBILITY.

NOT ALL STATIONS ARE QUALITY CONTROLLED BY THE NATIONAL
WEATHER SERVICE. USE DATA WITH CAUTION...ESPECIALLY
DEWPOINT OBSERVATIONS.

SCZ001>056-GAZ040-063>065-077-210000-
...UPSTATE SOUTH CAROLINA...

CITY           SKY/WX    TMP DP  RH WIND       PRES   REMARKS
ANDERSON       SUNNY     92  63  38 E6        30.07S
LIBERTY        CLEAR     89  69  50 E3        30.09R
SPARTANBURG    SUNNY     90  64  43 E6        30.09R
CLEMSON        SUNNY     90  69  50 E3        30.09S
GREENVILLE     SUNNY     91  63  39 E8        30.10S
GREENWOOD      MOSUNNY   90  66  45 S5        30.07R
GREER          SUNNY     89  66  46 NE7       30.09R
ROCK HILL        N/A     91  66  43 CALM      30.09R
CHESTER        CLEAR     90  63  40 NE5       30.09R
LAURENS        PTCLDY    91  68  46 NE3       30.07R HX  95


...CENTRAL SOUTH CAROLINA...

CITY           SKY/WX    TMP DP  RH WIND       PRES   REMARKS
COLUMBIA APT   MOSUNNY   92  70  48 SE10      30.05R HX  97
COLUMBIA OWENS SUNNY     93  68  43 VRB5      30.06R HX  97
MCENTIRE ANGB  SUNNY     92  70  49 SE7       30.06R HX  97
ORANGEBURG     CLOUDY    91  69  48 SE6       30.06R HX  96
SUMTER SHAW    CLOUDY    93  67  42 SE7       30.04R HX  96
NEWBERRY       CLOUDY    90  70  51 SW6       30.09R HX  95
AIKEN          FAIR      90  68  48 E5        30.10R
BARNWELL       FAIR      95  70  43 SE7       30.05R HX 101
MANNING        FAIR      88  79  74 S10       30.07R HX 102
CAMDEN         FAIR      91  70  49 CALM      30.07R HX  97
LANCASTER      CLEAR     91  68  46 E7        30.07R HX  95
WINNSBORO      CLEAR     90  68  48 SE6       30.07R


...EASTERN AND COASTAL SOUTH CAROLINA...

CITY           SKY/WX    TMP DP  RH WIND       PRES   REMARKS
MYRTLE BEACH   MOSUNNY   86  77  74 MISG      30.10R HX  97
N MYRTLE BCH   CLOUDY    84  75  74 SE6       30.09R
CONWAY         FAIR      84  77  79 SE3       30.09R
MARION         FAIR      86  70  58 SE6       30.07R
HARTSVILLE     FAIR      90  70  51 SE3       30.07R HX  95
FLORENCE       MOSUNNY   91  73  55 SE9       30.07R HX  99
DARLINGTON     SUNNY     91  74  57 E7        30.08R HX 100
CHARLESTON APT PTSUNNY   86  77  74 S9        30.07R HX  97
MOUNT PLEASANT FAIR      82  79  89 SE3       30.08R
WALTERBORO     CLOUDY    82  77  83 SE5       30.08S
BEAUFORT       CLOUDY    87  81  82 SE3       30.07S HX 104


...EASTERN GEORGIA...

CITY           SKY/WX    TMP DP  RH WIND       PRES   REMARKS
AUGUSTA BUSH F SUNNY     94  72  48 CALM      30.03S HX 102
AUGUSTA DANIEL MOSUNNY   94  65  38 SE5       30.06R HX  96
THOMSON        MOSUNNY   87  74  65 CALM      30.11R HX  96
WASHINGTON     FAIR     N/A N/A N/A CALM      30.06S
CLAXTON        FAIR      85  77  77 E3        30.05S HX  95
SYLVANIA       CLOUDY    87  80  79 SE6       30.07R HX 103
STATESBORO     PTSUNNY   88  72  58 SE5       30.06S
SAVANNAH       CLOUDY    86  77  74 SE10      30.06S HX  97


...SOUTHERN NORTH CAROLINA...

CITY           SKY/WX    TMP DP  RH WIND       PRES   REMARKS
CHARLOTTE      MOSUNNY   91  70  49 NW5       30.09R HX  96
MONROE         PTSUNNY   89  72  56 CALM      30.08R HX  96
WADESBORO      MOCLDY    91  67  46 SE7       30.06S
ROCKINGHAM     PTCLDY    92  69  47 SE10      30.07R HX  97
RUTHERFORDTON  SUNNY     87  67  51 S8        30.12S
ASHEVILLE      PTSUNNY   81  66  60 SE6       30.18R

$$




USA.gov is the U.S. government's official web portal to all federal, state and local government web resources and services.